Cairns, Australia

12:34 PM AEST on October 18, 2017 (GMT +1000)
Cairns International

Weather History for YBCS - July, 2013

Change the Weather History Date:

Saturday, July 6, 2013

  Actual Average Record
Temperature  
Mean Temperature 76 °F -  
Max Temperature 82 °F 78 °F 82 °F (2010)
Min Temperature 69 °F 62 °F 53 °F (2002)
Cooling Degree Days 10    
Growing Degree Days 26 (Base 50)    
Moisture  
Dew Point 66 °F    
Average Humidity 75    
Maximum Humidity 88    
Minimum Humidity 54    
Precipitation  
Precipitation 0.00 in 0.03 in - ()
Sea Level Pressure  
Sea Level Pressure 30.01 in    
Wind  
Wind Speed 11 mph ()    
Max Wind Speed 16 mph    
Max Gust Speed -    
Visibility 6.5 miles    
Events Rain    
Averages and records for this station are not official NWS values.
T = Trace of Precipitation, MM = Missing Value Source: Averaged Metar Reports

Daily Weather History Graph

Daily Weather History Graph

Search for Another Location

Airport or City:

Trip Planner

Search our weather history database for the weather conditions in past years. The results will help you decide how hot, cold, wet, or windy it might be!

Date:

Astronomy

Jul. 06, 2013 Rise Set
Actual Time 6:47 AM AEST 5:56 PM AEST
Civil Twilight 6:23 AM AEST 6:19 PM AEST
Nautical Twilight 5:56 AM AEST 6:46 PM AEST
Astronomical Twilight 5:30 AM AEST 7:13 PM AEST
Moon 4:49 AM AEST (7/6) 4:19 PM AEST (7/6)
Length of Visible Light 11h 56m
Length of Day
11h 09m
Waning Crescent, 4% of the Moon is Illuminated
Jul 6
Waning Crescent
Jul 8
New
Jul 16
First Quarter
Jul 23
Full
Jul 30
Last Quarter

Hourly Weather History & Observations

Time (AEST) Temp. Heat Index Dew Point Humidity Pressure Visibility Wind Dir Wind Speed Gust Speed Precip Events Conditions
12:00 AM 72 °F - 65 °F 74% 30.01 in - South 12.7 mph - -   Overcast
12:00 AM 71.6 °F - 66.2 °F 83% 30.01 in 6.2 mi South 12.7 mph - N/A   Mostly Cloudy
12:30 AM 71.6 °F - 66.2 °F 83% 30.01 in 6.2 mi South 12.7 mph - N/A   Mostly Cloudy
1:00 AM 72 °F - 65 °F 74% 30.00 in - South 11.5 mph - -  
1:00 AM 71.6 °F - 66.2 °F 83% 29.98 in 6.2 mi South 11.5 mph - N/A   Mostly Cloudy
1:30 AM 71.6 °F - 64.4 °F 78% 29.98 in 6.2 mi South 12.7 mph - N/A   Mostly Cloudy
2:00 AM 71.6 °F - 64.4 °F 78% 29.98 in 6.2 mi South 9.2 mph - N/A   Overcast
2:30 AM 69.8 °F - 66.2 °F 88% 29.98 in 6.2 mi South 8.1 mph - N/A   Overcast
3:00 AM 71 °F - 65 °F 74% 29.97 in - South 11.5 mph - -  
3:00 AM 71.6 °F - 64.4 °F 78% 29.95 in 6.2 mi South 11.5 mph - N/A   Overcast
3:30 AM 71.6 °F - 64.4 °F 78% 29.95 in 6.2 mi South 12.7 mph - N/A   Overcast
4:00 AM 71 °F - 64 °F 73% 29.97 in - South 11.5 mph - -  
4:00 AM 71.6 °F - 64.4 °F 78% 29.95 in 6.2 mi South 11.5 mph - N/A   Mostly Cloudy
4:30 AM 71.6 °F - 64.4 °F 78% 29.95 in 6.2 mi South 12.7 mph - N/A   Overcast
5:00 AM 71.6 °F - 64.4 °F 78% 29.98 in 6.2 mi South 12.7 mph - N/A   Mostly Cloudy
5:30 AM 69.8 °F - 64.4 °F 83% 29.98 in 6.2 mi South 10.4 mph - N/A   Mostly Cloudy
6:00 AM 70 °F - 65 °F 78% 29.99 in 25 mi SSE 10.4 mph - -   Partly Cloudy
6:00 AM 69.8 °F - 64.4 °F 83% 29.98 in 6.2 mi SSE 10.4 mph - N/A   Mostly Cloudy
6:30 AM 69.8 °F - 64.4 °F 83% 29.98 in 6.2 mi SSE 9.2 mph - N/A   Mostly Cloudy
7:00 AM 71 °F - 64 °F 71% 30.01 in - SSE 10.4 mph - -  
7:00 AM 71.6 °F - 64.4 °F 78% 30.01 in 6.2 mi SSE 10.4 mph - N/A   Mostly Cloudy
7:30 AM 71.6 °F - 64.4 °F 78% 30.01 in 6.2 mi South 11.5 mph - N/A   Mostly Cloudy
8:00 AM 71.6 °F - 64.4 °F 78% 30.04 in 6.2 mi South 11.5 mph - N/A   Mostly Cloudy
8:30 AM 71.6 °F - 64.4 °F 78% 30.04 in 6.2 mi South 10.4 mph - N/A   Mostly Cloudy
9:00 AM 74 °F - 63 °F 60% 30.05 in 25 mi South 10.4 mph - -   Partly Cloudy
9:00 AM 73.4 °F - 62.6 °F 69% 30.04 in 6.2 mi South 10.4 mph - N/A   Mostly Cloudy
9:30 AM 75.2 °F - 64.4 °F 69% 30.04 in 6.2 mi SSE 11.5 mph - N/A   Mostly Cloudy
10:00 AM 77.0 °F - 64.4 °F 65% 30.04 in 6.2 mi South 11.5 mph - N/A   Mostly Cloudy
10:30 AM 77.0 °F - 64.4 °F 65% 30.04 in 6.2 mi SSE 11.5 mph - N/A   Mostly Cloudy
11:00 AM 75.2 °F - 66.2 °F 73% 30.06 in 6.2 mi SSE 12.7 mph - N/A Rain Light Rain Showers
11:30 AM 77.0 °F - 68.0 °F 74% 30.04 in 6.2 mi South 11.5 mph - N/A   Mostly Cloudy
12:00 PM 77 °F - 69 °F 71% 30.05 in 19 mi South 10.4 mph - -   Partly Cloudy
12:00 PM 77.0 °F - 69.8 °F 78% 30.04 in 6.2 mi South 10.4 mph - N/A   Mostly Cloudy
12:30 PM 78.8 °F - 68.0 °F 69% 30.01 in 6.2 mi South 10.4 mph - N/A   Scattered Clouds
1:00 PM 80 °F - 69 °F 61% 30.02 in - South 12.7 mph - -  
1:00 PM 80.6 °F 83.9 °F 69.8 °F 70% 30.01 in 6.2 mi South 12.7 mph - N/A   Scattered Clouds
1:30 PM 80.6 °F 83.2 °F 68.0 °F 65% 29.98 in 6.2 mi SSE 15.0 mph - N/A   Scattered Clouds
2:00 PM 82.4 °F 85.4 °F 68.0 °F 62% 29.98 in 6.2 mi SSE 13.8 mph - N/A   Mostly Cloudy
2:30 PM 80.6 °F 82.7 °F 66.2 °F 61% 29.98 in 6.2 mi SSE 12.7 mph - N/A   Mostly Cloudy
3:00 PM 80 °F - 66 °F 54% 29.98 in 25 mi SSE 16.1 mph - -   Partly Cloudy
3:00 PM 80.6 °F 82.7 °F 66.2 °F 61% 29.98 in 6.2 mi SSE 16.1 mph - N/A   Mostly Cloudy
3:30 PM 80.6 °F 83.2 °F 68.0 °F 65% 29.98 in 6.2 mi South 9.2 mph - N/A   Mostly Cloudy
4:00 PM 79 °F - 67 °F 58% 29.99 in - SE 16.1 mph - -  
4:00 PM 78.8 °F - 66.2 °F 65% 29.98 in 6.2 mi SE 16.1 mph - N/A   Scattered Clouds
4:30 PM 78.8 °F - 68.0 °F 69% 29.98 in 6.2 mi South 11.5 mph - N/A   Mostly Cloudy
5:00 PM 77.0 °F - 68.0 °F 74% 29.98 in 6.2 mi South 9.2 mph - N/A   Mostly Cloudy
5:30 PM 77.0 °F - 68.0 °F 74% 29.98 in 6.2 mi SE 11.5 mph - N/A   Mostly Cloudy
6:00 PM 75 °F - 68 °F 74% 30.01 in - SE 10.4 mph - -   Overcast
6:00 PM 75.2 °F - 68.0 °F 78% 30.01 in 6.2 mi SE 10.4 mph - N/A   Mostly Cloudy
6:30 PM 73.4 °F - 69.8 °F 88% 30.01 in 6.2 mi SSE 15.0 mph - N/A   Mostly Cloudy
7:00 PM 74 °F - 69 °F 79% 30.03 in - South 9.2 mph - -  
7:00 PM 73.4 °F - 69.8 °F 88% 30.01 in 6.2 mi South 9.2 mph - N/A   Mostly Cloudy
7:30 PM 73.4 °F - 68.0 °F 83% 30.04 in 6.2 mi South 12.7 mph - N/A   Mostly Cloudy
8:00 PM 73.4 °F - 68.0 °F 83% 30.04 in 6.2 mi South 12.7 mph - N/A   Mostly Cloudy
8:30 PM 73.4 °F - 68.0 °F 83% 30.04 in 6.2 mi South 9.2 mph - N/A   Mostly Cloudy
9:00 PM 73 °F - 68 °F 80% 30.06 in - South 9.2 mph - -   Overcast
9:00 PM 73.4 °F - 68.0 °F 83% 30.04 in 6.2 mi South 9.2 mph - N/A   Mostly Cloudy
9:30 PM 73.4 °F - 68.0 °F 83% 30.06 in 6.2 mi South 11.5 mph - N/A   Partly Cloudy
10:00 PM 73 °F - 67 °F 78% 30.07 in - South 11.5 mph - -  
10:00 PM 73.4 °F - 68.0 °F 83% 30.06 in 6.2 mi South 11.5 mph - N/A   Partly Cloudy
10:30 PM 73.4 °F - 68.0 °F 83% 30.06 in 6.2 mi South 10.4 mph - N/A   Mostly Cloudy
11:00 PM 73.4 °F - 68.0 °F 83% 30.06 in 6.2 mi South 10.4 mph - N/A   Mostly Cloudy
11:30 PM 73.4 °F - 68.0 °F 83% 30.04 in 6.2 mi South 10.4 mph - N/A   Mostly Cloudy